CDT,Max TemperatureF,Mean TemperatureF,Min TemperatureF,Max Dew PointF,MeanDew PointF,Min DewpointF,Max Humidity, Mean Humidity, Min Humidity, Max Sea Level PressureIn, Mean Sea Level PressureIn, Min Sea Level PressureIn, Max VisibilityMiles, Mean VisibilityMiles, Min VisibilityMiles, Max Wind SpeedMPH, Mean Wind SpeedMPH, Max Gust SpeedMPH,PrecipitationIn, CloudCover, Events, WindDirDegrees
2013-4-1,50,39,28,27,25,21,92,64,36,30.33,30.25,30.20,,,,13,4,15,0.00,7,,56
2013-4-2,58,41,23,28,24,20,81,55,28,30.27,30.20,30.14,,,,17,7,26,0.00,0,,74
2013-4-3,66,46,25,34,27,21,92,58,24,30.19,30.10,30.01,,,,30,15,37,0.00,0,,208
2013-4-4,58,45,31,32,22,14,72,46,19,30.21,30.14,30.07,,,,18,9,22,0.00,1,,38
2013-4-5,80,58,36,34,28,23,64,39,14,30.10,29.75,29.50,,,,29,16,35,0.00,2,,179
2013-4-6,69,54,39,46,37,26,86,54,22,29.82,29.71,29.54,,,,26,12,35,0.07,5,Rain,313
2013-4-7,65,51,37,47,39,33,86,65,43,29.82,29.70,29.59,,,,22,7,26,0.01,4,Rain,101
2013-4-8,47,36,24,45,37,23,100,92,84,29.97,29.76,29.57,,,,29,13,37,0.13,7,Rain-Snow,21
2013-4-9,24,19,14,23,13,10,88,83,77,30.36,30.16,29.91,,,,33,22,44,0.33,8,Snow,1
2013-4-10,25,22,19,21,18,15,84,79,74,30.30,30.13,29.92,,,,23,16,30,0.06,8,Rain-Snow,347
2013-4-11,29,26,23,25,21,19,88,82,75,30.01,29.83,29.73,,,,22,13,29,0.20,8,Snow,330
2013-4-12,39,33,27,32,27,23,89,77,64,30.04,29.95,29.81,,,,17,9,22,0.00,7,,306
2013-4-13,45,35,24,39,32,22,100,88,76,30.03,29.76,29.51,,,,25,11,30,T,4,Rain,133
2013-4-14,47,38,28,37,32,20,100,75,49,29.74,29.47,29.35,,,,33,17,45,0.33,7,Rain-Thunderstorm,301
2013-4-15,39,32,24,23,19,16,74,61,48,30.15,29.94,29.75,,,,31,14,43,0.00,5,,311
2013-4-16,36,32,28,28,25,23,85,75,64,30.30,30.23,30.17,,,,14,8,17,0.07,6,Snow,29
2013-4-17,30,28,26,28,25,23,92,88,84,30.30,30.17,30.06,,,,22,15,28,0.11,8,Rain-Snow,26
2013-4-18,34,28,22,25,21,18,81,72,63,30.15,30.08,30.00,,,,30,17,39,T,7,Snow,336
2013-4-19,45,32,18,25,20,16,91,65,39,30.11,30.06,29.97,,,,20,8,24,0.00,3,,343
2013-4-20,57,43,29,32,26,19,85,60,35,30.12,30.05,29.95,,,,25,16,32,0.04,7,Snow,146
2013-4-21,58,48,38,42,36,30,85,68,50,30.14,30.05,29.97,,,,23,12,29,0.06,5,Rain,354
2013-4-22,38,28,18,34,26,17,96,84,72,30.48,30.23,30.06,,,,24,15,32,0.40,8,Snow,27
2013-4-23,37,25,12,21,16,10,92,68,44,30.46,30.35,30.25,,,,15,8,20,0.00,0,,298
2013-4-24,48,35,22,27,23,18,81,60,38,30.22,30.17,30.12,,,,29,13,37,0.00,2,,283
2013-4-25,74,51,27,30,23,10,85,47,9,30.21,30.01,29.82,,,,31,13,37,0.00,0,,225
2013-4-26,72,52,32,32,26,23,78,47,16,30.14,30.06,29.90,,,,20,7,25,0.00,0,,345
2013-4-27,83,61,39,37,28,18,70,40,9,30.14,29.98,29.82,,,,18,7,23,0.00,0,,237
2013-4-28,78,61,44,36,33,30,65,42,18,29.87,29.79,29.73,,,,28,12,36,0.00,0,,322
2013-4-29,84,64,43,38,33,29,71,43,15,29.88,29.64,29.36,,,,31,12,44,T,2,,190
2013-4-30,59,50,41,41,32,19,76,50,23,30.13,29.79,29.42,,,,31,13,43,0.05,4,Rain,337